Temp
61 61 61 60 60 60 60 60 60 61 61 61 62 62 62 62 61 58 64 73 70 72 72 70 71 69 66 63 63 59 53 48 53 56 58 61 63 66 69 69 68 69 69 72 74
60 61 60 60 60 60 60 60 60 60 61 61 61 61 61 61 56 61 75 74 73 75 69 68 65 66 63 61 61 58 50 55 60 61 59 63 61 67 67 65 65 68 71 72 70
60 60 60 60 60 60 59 60 60 60 61 61 61 61 61 59 60 65 76 72 73 74 70 68 67 64 58 58 57 54 55 59 62 62 65 65 65 65 64 58 65 67 67 68 66
59 59 59 59 60 59 59 59 60 60 60 61 61 61 62 59 50 67 75 74 74 71 69 67 63 57 54 54 57 52 61 62 65 65 62 64 66 64 63 66 71 70 70 66 64
58 59 59 59 59 59 59 59 59 59 59 60 61 62 61 58 63 72 76 74 70 70 67 64 61 56 54 54 56 53 58 61 62 63 59 65 63 64 64 68 70 69 70 64 62
57 58 58 58 58 58 58 58 58 58 59 60 62 63 60 54 70 74 73 71 70 65 66 64 61 61 58 55 55 57 58 58 58 58 58 63 59 62 67 67 67 67 65 62 64
57 57 57 57 58 58 58 58 57 58 59 61 63 67 58 64 70 70 70 65 68 71 66 66 68 64 60 55 59 58 53 58 58 58 58 62 56 59 65 66 65 65 63 62 62
57 56 56 57 57 58 58 58 58 59 61 62 66 61 58 70 69 68 67 70 73 72 70 70 67 63 56 57 59 53 52 47 54 59 60 63 50 62 64 63 63 63 62 62 61
57 56 56 57 57 57 57 57 59 61 62 64 58 57 58 73 70 74 73 71 71 71 71 78 65 56 58 51 48 48 43 45 53 59 56 57 50 62 62 62 62 60 60 62 59
57 56 56 56 57 57 56 57 62 62 63 67 69 56 62 64 71 74 71 74 69 67 66 63 54 50 46 45 40 44 43 44 46 53 53 50 52 58 58 59 63 59 59 59 60
57 56 56 56 56 56 53 61 58 57 58 59 61 62 66 74 74 69 73 71 67 63 52 53 49 44 49 50 49 48 45 45 50 56 52 52 52 58 59 57 58 57 57 57 60
56 56 56 56 56 55 52 59 61 59 49 63 63 64 71 72 65 67 73 64 59 53 53 50 45 54 55 54 52 49 44 45 51 55 52 49 51 56 57 58 60 59 57 61 57
55 56 56 56 55 55 53 61 61 57 49 59 63 62 63 68 63 64 70 62 56 51 50 47 53 59 57 52 50 46 45 46 50 50 49 48 47 51 56 56 59 59 60 61 60
55 56 56 54 57 49 58 59 59 57 43 53 60 64 64 63 59 71 71 66 54 54 52 49 55 56 51 51 52 43 54 53 51 45 40 46 36 45 51 53 56 59 56 57 59
55 55 56 54 49 55 63 57 59 59 34 59 59 68 63 59 62 63 68 64 56 56 54 52 52 50 49 54 56 50 54 51 48 42 37 40 37 43 45 48 53 55 55 54 59
54 55 54 52 46 55 56 55 58 44 35 54 60 57 56 60 61 62 63 65 61 54 52 53 56 56 55 57 56 56 49 45 40 38 29 40 41 38 45 48 52 54 56 56 54
54 54 51 54 54 63 53 56 42 34 54 50 51 56 52 53 57 58 55 51 49 43 42 49 50 55 59 49 50 48 41 28 31 30 30 39 36 40 49 52 53 54 53 52 54
52 51 50 56 57 54 56 49 33 45 46 55 53 54 49 52 52 53 51 47 50 48 41 41 41 52 57 54 48 44 43 30 28 25 32 40 35 44 52 53 52 52 50 51 51
51 44 49 57 60 54 51 35 37 43 52 49 50 45 46 49 49 49 47 48 51 49 42 38 42 55 58 56 56 44 40 44 34 31 29 35 42 50 50 51 50 49 51 50 52
40 40 47 58 55 53 45 40 42 50 52 50 41 45 39 41 44 43 43 50 47 51 49 45 37 52 56 56 51 49 50 36 30 29 27 33 35 38 45 47 49 49 50 51 53
39 41 52 56 52 45 36 37 45 52 52 47 43 42 41 39 40 40 45 47 50 49 49 45 38 43 49 46 45 43 39 38 36 32 28 25 34 45 48 49 49 50 52 52 52
35 38 50 51 42 33 33 40 47 47 49 47 46 44 41 41 39 40 42 46 51 50 42 43 37 32 43 51 52 48 44 40 31 32 29 30 39 52 50 51 51 52 54 52 53
30 31 46 47 30 29 36 41 45 42 43 43 42 43 43 38 32 39 42 48 49 47 42 43 33 27 35 41 46 43 44 42 37 33 32 29 40 50 50 50 51 52 52 54 53
32 30 36 38 36 32 30 34 36 45 43 44 41 43 38 35 37 34 37 46 47 47 53 47 34 33 29 36 42 40 45 43 41 29 42 36 47 46 48 49 50 50 51 52 52
32 28 31 26 30 29 29 33 33 33 41 42 37 37 33 28 30 32 37 39 44 47 43 38 29 34 38 41 41 41 42 46 40 46 37 47 42 51 49 49 51 54 51 51 50
30 29 31 28 30 29 30 28 32 35 35 33 32 35 33 28 31 29 33 33 34 40 35 36 28 33 32 39 40 38 42 45 47 49 47 49 48 52 52 53 51 52 51 50 50
38 33 32 34 32 29 27 30 33 34 36 38 35 32 30 34 38 38 37 37 37 34 32 32 30 27 25 36 36 29 39 42 46 49 50 42 51 49 49 51 52 52 51 52 50
MSLP
1017.16 1016.60 1016.07 1015.58 1015.12 1014.61 1014.17 1013.71 1013.35 1012.99 1012.63 1012.28 1011.95 1011.71 1011.59 1011.32 1010.97 1011.02 1010.09 1008.87 1008.70 1008.73 1008.72 1008.76 1008.78 1008.99 1009.05 1009.43 1009.70 1010.36 1011.46 1012.16 1011.30 1010.79 1009.98 1009.64 1009.68 1009.77 1009.60 1009.86 1010.17 1010.53 1011.00 1011.63 1012.22
1017.28 1016.64 1016.01 1015.48 1014.94 1014.53 1014.08 1013.56 1013.12 1012.74 1012.34 1012.04 1011.70 1011.41 1011.20 1010.96 1010.88 1009.97 1008.44 1008.39 1008.56 1008.62 1008.76 1008.78 1008.91 1008.94 1009.40 1009.46 1009.78 1010.33 1011.25 1010.94 1010.28 1009.96 1009.74 1009.48 1009.44 1009.50 1009.99 1010.50 1010.96 1011.28 1011.78 1012.26 1012.55
1017.37 1016.72 1016.11 1015.41 1014.85 1014.27 1013.86 1013.45 1012.91 1012.48 1012.04 1011.62 1011.30 1011.06 1010.88 1010.90 1010.32 1008.68 1008.04 1008.24 1008.42 1008.53 1008.65 1008.82 1008.76 1008.98 1009.32 1009.53 1009.82 1010.14 1010.26 1010.01 1009.74 1009.47 1009.41 1009.48 1009.78 1009.70 1010.17 1010.94 1010.80 1011.32 1012.27 1012.72 1013.12
1017.50 1016.82 1016.13 1015.51 1014.77 1014.13 1013.60 1013.16 1012.76 1012.28 1011.87 1011.48 1011.08 1010.75 1010.59 1010.57 1009.89 1008.09 1008.01 1008.27 1008.45 1008.51 1008.61 1008.72 1008.86 1009.16 1009.47 1009.62 1009.61 1009.81 1009.45 1009.52 1009.38 1009.41 1009.50 1009.64 1009.60 1009.98 1010.14 1010.29 1010.23 1010.93 1011.84 1012.83 1013.55
1017.57 1016.83 1016.15 1015.44 1014.76 1014.05 1013.42 1012.90 1012.48 1012.08 1011.67 1011.24 1010.90 1010.62 1010.33 1010.10 1009.06 1007.91 1007.99 1008.14 1008.38 1008.42 1008.46 1008.61 1008.95 1009.22 1009.47 1009.71 1009.65 1009.75 1009.40 1009.36 1009.20 1009.54 1009.66 1009.64 1009.73 1010.02 1010.25 1010.21 1010.65 1011.58 1012.24 1013.07 1013.80
1017.60 1016.80 1016.04 1015.29 1014.58 1013.89 1013.28 1012.65 1012.19 1011.80 1011.45 1011.16 1010.82 1010.64 1010.34 1009.75 1007.98 1007.81 1008.01 1008.13 1008.26 1008.36 1008.44 1008.40 1008.74 1008.94 1009.42 1009.72 1009.86 1009.80 1009.64 1009.60 1009.57 1009.76 1009.87 1010.05 1010.22 1010.20 1010.06 1010.40 1011.23 1011.84 1012.52 1013.30 1013.64
1017.62 1016.74 1015.83 1015.01 1014.20 1013.49 1012.90 1012.41 1011.86 1011.50 1011.15 1010.96 1010.78 1010.67 1010.22 1008.60 1007.80 1007.95 1007.97 1008.04 1008.10 1008.10 1008.18 1008.26 1008.49 1008.89 1009.59 1009.90 1010.04 1010.08 1010.20 1010.11 1009.88 1009.95 1010.07 1010.22 1010.80 1010.66 1010.28 1010.70 1011.44 1012.19 1012.65 1013.48 1013.94
1017.56 1016.68 1015.63 1014.67 1013.74 1012.89 1012.31 1011.84 1011.42 1011.08 1010.92 1010.86 1010.70 1010.61 1009.70 1007.81 1007.70 1007.78 1007.84 1007.85 1007.82 1007.92 1008.02 1008.20 1008.52 1009.33 1009.96 1010.34 1010.73 1010.93 1010.92 1010.88 1010.35 1010.37 1010.21 1010.48 1010.46 1010.39 1010.56 1011.00 1011.79 1012.25 1012.80 1013.24 1013.82
1017.48 1016.56 1015.50 1014.40 1013.51 1012.47 1011.68 1011.13 1010.64 1010.56 1010.71 1010.80 1010.86 1010.44 1009.20 1007.70 1007.59 1007.12 1007.34 1007.79 1007.76 1007.81 1008.07 1008.38 1008.98 1010.48 1010.82 1011.41 1011.94 1012.08 1011.75 1011.38 1010.85 1010.46 1010.48 1010.67 1010.28 1010.03 1010.45 1010.96 1011.58 1012.22 1012.56 1013.14 1013.74
1017.43 1016.40 1015.32 1014.29 1013.28 1012.23 1011.24 1010.78 1010.51 1010.54 1010.82 1010.80 1010.59 1010.67 1008.77 1007.67 1007.15 1007.04 1007.20 1007.50 1007.87 1008.12 1008.66 1009.43 1010.59 1011.58 1012.37 1012.38 1012.57 1012.27 1011.91 1011.52 1011.09 1010.71 1010.82 1010.86 1010.74 1010.45 1010.78 1011.06 1011.32 1011.89 1012.37 1013.02 1013.36
1017.40 1016.32 1015.15 1014.00 1013.12 1012.18 1011.01 1010.50 1011.44 1011.03 1010.76 1010.33 1009.89 1009.38 1008.46 1007.39 1006.90 1007.02 1007.07 1007.64 1008.10 1008.77 1009.67 1010.50 1011.54 1012.00 1012.18 1012.18 1012.05 1011.86 1011.70 1011.51 1011.02 1010.65 1010.82 1010.98 1010.97 1010.73 1010.64 1011.02 1011.52 1011.85 1012.34 1012.71 1012.81
1017.21 1016.06 1014.88 1013.70 1012.85 1012.01 1011.76 1012.21 1012.80 1013.04 1011.48 1009.39 1008.60 1008.55 1007.87 1007.57 1007.58 1007.16 1007.11 1007.92 1008.44 1009.35 1010.17 1011.20 1011.44 1011.08 1011.31 1011.44 1011.68 1011.87 1011.88 1011.77 1011.21 1010.94 1011.23 1011.24 1011.21 1010.85 1010.68 1010.66 1010.58 1011.06 1011.67 1011.86 1012.60
1017.27 1016.19 1014.56 1013.34 1012.54 1012.30 1012.77 1012.68 1012.68 1012.72 1012.27 1009.05 1008.10 1007.70 1007.30 1007.50 1007.84 1007.25 1007.28 1007.80 1008.62 1009.69 1010.35 1010.98 1010.54 1010.46 1010.78 1011.07 1011.47 1011.60 1011.99 1011.92 1011.75 1011.64 1011.81 1011.93 1011.38 1010.94 1010.29 1010.12 1010.04 1010.19 1010.30 1010.91 1011.37
1017.47 1016.29 1014.89 1013.24 1012.86 1013.92 1012.91 1012.48 1012.26 1012.32 1012.02 1009.43 1007.91 1007.07 1007.05 1007.12 1007.32 1006.80 1006.96 1007.68 1008.80 1009.55 1010.52 1010.64 1010.14 1010.15 1010.42 1010.67 1010.95 1011.24 1011.05 1011.58 1012.23 1012.80 1013.19 1012.92 1012.32 1011.46 1010.63 1010.36 1010.21 1009.78 1010.22 1010.34 1010.90
1017.64 1016.53 1015.51 1014.75 1014.86 1014.02 1013.00 1012.33 1011.89 1012.07 1011.80 1008.85 1007.74 1006.91 1007.11 1007.40 1007.06 1006.83 1006.83 1007.44 1008.53 1009.41 1010.11 1010.07 1009.90 1010.02 1010.13 1010.14 1010.59 1011.06 1011.24 1012.24 1013.08 1013.97 1014.28 1014.14 1014.04 1011.26 1011.05 1010.66 1010.05 1009.49 1009.78 1010.10 1010.10
1017.64 1016.65 1015.88 1015.20 1015.04 1013.57 1012.86 1012.46 1012.13 1012.91 1011.40 1009.34 1008.55 1008.27 1008.17 1007.70 1007.46 1007.42 1007.43 1007.73 1008.55 1009.57 1009.96 1009.82 1009.70 1009.60 1009.45 1009.48 1010.09 1011.06 1012.09 1013.49 1014.73 1015.27 1015.11 1014.23 1013.90 1011.64 1010.93 1010.03 1009.86 1009.56 1009.53 1009.56 1009.86
1017.42 1016.30 1015.76 1015.47 1014.93 1013.10 1012.94 1012.88 1013.67 1012.95 1011.12 1010.92 1010.44 1009.93 1009.58 1009.01 1008.43 1008.36 1008.44 1008.88 1009.44 1010.32 1010.58 1010.24 1009.71 1009.08 1009.02 1009.73 1010.48 1011.24 1013.00 1014.91 1015.92 1016.36 1015.48 1014.46 1014.29 1011.48 1010.14 1009.99 1009.97 1009.66 1009.34 1009.53 1009.83
1017.59 1015.96 1015.59 1015.00 1014.18 1013.59 1013.25 1013.95 1014.46 1013.14 1012.41 1011.90 1011.58 1010.88 1010.65 1010.46 1010.00 1009.85 1009.67 1009.90 1010.12 1010.64 1011.40 1011.14 1010.12 1009.18 1008.84 1009.11 1009.95 1011.33 1012.44 1014.73 1015.82 1016.82 1015.92 1015.04 1013.48 1010.75 1009.91 1009.87 1009.85 1009.72 1009.52 1010.04 1010.46
1017.40 1016.35 1015.77 1014.71 1013.88 1013.58 1014.34 1015.40 1014.76 1014.18 1013.58 1013.07 1012.49 1012.14 1011.88 1011.85 1011.72 1011.33 1011.25 1011.06 1010.97 1011.11 1011.71 1011.41 1010.15 1008.90 1008.58 1008.80 1009.32 1011.49 1012.59 1013.10 1015.00 1016.46 1016.42 1014.42 1012.35 1010.53 1009.92 1009.95 1010.15 1010.29 1010.32 1010.60 1010.93
1019.01 1018.08 1016.43 1014.99 1014.14 1014.17 1015.35 1015.88 1015.38 1014.98 1014.34 1013.82 1013.78 1013.47 1013.46 1013.51 1013.28 1012.97 1012.54 1012.18 1012.37 1012.38 1012.27 1011.68 1011.04 1009.48 1008.83 1008.95 1009.81 1010.30 1011.48 1013.56 1015.26 1016.33 1016.09 1014.13 1012.78 1010.86 1010.32 1010.28 1010.56 1010.86 1011.02 1011.15 1011.13
1019.69 1018.64 1016.49 1014.86 1014.40 1015.56 1016.80 1016.89 1016.21 1015.72 1015.24 1014.89 1014.68 1014.60 1014.72 1014.76 1014.62 1014.34 1013.64 1013.66 1013.34 1013.12 1012.64 1012.80 1012.50 1011.00 1009.87 1009.50 1009.88 1010.96 1011.64 1013.16 1014.12 1015.02 1014.91 1014.22 1011.72 1009.56 1009.35 1009.69 1010.18 1010.51 1010.53 1010.61 1010.96
1021.90 1020.40 1017.36 1016.14 1016.72 1018.54 1019.00 1018.65 1017.83 1016.88 1016.28 1015.83 1015.54 1015.69 1015.77 1015.79 1015.58 1015.31 1014.70 1014.46 1014.32 1014.04 1014.09 1014.18 1013.61 1012.80 1010.97 1009.78 1009.50 1009.79 1010.58 1011.70 1013.32 1014.41 1014.53 1013.54 1009.82 1008.31 1008.45 1008.78 1009.16 1009.65 1010.03 1010.25 1010.60
1023.66 1022.21 1018.56 1017.92 1020.01 1021.20 1020.80 1019.92 1018.90 1018.36 1017.88 1017.32 1017.02 1017.13 1017.00 1017.04 1016.95 1016.25 1015.72 1015.57 1015.51 1015.16 1015.33 1015.31 1014.88 1014.24 1012.28 1011.06 1010.36 1010.42 1010.72 1011.17 1012.03 1012.68 1012.53 1012.00 1008.81 1007.61 1008.17 1008.57 1008.74 1009.13 1009.50 1009.73 1010.15
1024.51 1023.87 1022.02 1021.60 1022.74 1022.76 1022.73 1021.69 1020.55 1019.48 1018.81 1018.39 1018.28 1018.07 1018.18 1018.05 1017.92 1017.48 1017.14 1016.45 1016.23 1016.42 1016.22 1016.08 1015.90 1015.58 1014.35 1012.77 1012.27 1011.72 1011.22 1011.15 1010.88 1011.47 1010.08 1009.86 1007.80 1007.92 1008.06 1008.27 1008.43 1008.62 1008.74 1009.17 1009.70
1025.43 1026.13 1025.81 1024.96 1024.32 1024.54 1024.06 1022.92 1021.72 1020.95 1020.02 1019.50 1019.34 1019.50 1020.01 1019.65 1019.14 1018.59 1018.18 1017.86 1017.34 1017.11 1016.82 1016.88 1016.42 1015.94 1014.70 1014.13 1013.56 1012.41 1011.36 1010.79 1010.60 1009.11 1008.66 1007.25 1007.78 1006.06 1007.07 1007.44 1007.60 1007.59 1008.28 1008.95 1009.34
1026.34 1026.68 1026.31 1026.00 1025.56 1024.97 1024.15 1023.08 1022.38 1021.84 1021.56 1020.79 1020.70 1020.78 1020.92 1020.80 1020.39 1019.67 1019.40 1018.97 1018.14 1017.65 1017.19 1017.11 1016.75 1016.48 1015.14 1014.55 1013.63 1012.38 1011.30 1009.98 1008.85 1008.00 1007.69 1006.59 1006.01 1005.14 1005.93 1006.24 1006.92 1007.15 1007.88 1008.37 1008.64
1026.17 1026.50 1026.47 1025.40 1024.90 1024.90 1024.26 1023.44 1022.77 1022.48 1021.76 1021.32 1021.36 1021.25 1020.92 1020.58 1020.07 1019.65 1019.40 1019.22 1018.76 1018.46 1018.26 1018.14 1017.74 1017.44 1015.32 1014.72 1013.86 1012.43 1009.28 1009.14 1008.17 1006.94 1006.18 1006.00 1004.74 1005.15 1005.34 1005.80 1005.92 1006.12 1006.71 1007.08 1007.50
Wind_Speed
21 21 20 19 17 18 16 14 13 12 11 12 12 11 10 10 11 3 4 6 4 5 1 2 2 3 2 2 2 3 6 3 6 6 4 4 5 3 2 5 3 3 4 7 6
21 21 21 20 19 17 17 16 14 12 12 11 11 11 9 9 2 4 6 8 7 3 2 4 1 3 3 2 2 5 4 9 6 6 6 6 3 6 5 3 5 7 7 6 5
22 21 21 22 21 18 17 16 16 14 13 13 12 10 9 5 3 5 6 8 7 3 3 1 3 2 3 1 2 3 5 6 4 5 7 8 6 3 10 2 6 13 10 6 6
23 23 22 21 22 20 19 18 16 15 13 12 11 10 9 1 2 1 9 9 7 4 2 3 3 3 3 2 2 2 4 5 7 6 4 7 5 5 3 8 9 10 13 8 9
24 24 23 23 22 21 19 19 16 14 14 13 11 9 1 5 7 2 8 9 5 2 3 3 5 2 4 1 1 1 2 2 2 8 3 5 4 6 7 3 7 7 7 11 10
26 25 25 24 23 21 19 18 16 13 11 12 11 9 3 2 1 4 6 4 3 2 2 3 3 3 5 2 3 2 1 2 1 4 3 7 3 4 7 6 9 10 9 10 15
25 26 26 26 24 22 20 18 16 13 10 9 9 3 3 12 1 4 4 1 3 3 1 1 4 3 4 2 3 0 2 4 2 3 4 5 4 8 4 8 11 10 9 10 10
26 26 26 27 26 25 23 19 16 12 7 6 5 1 7 3 2 4 2 3 4 4 2 5 3 6 3 1 6 4 6 3 2 5 3 9 8 10 8 11 12 10 8 8 10
26 26 27 28 27 27 24 21 10 6 3 4 1 3 9 7 2 3 6 4 1 2 4 4 5 4 5 5 5 7 3 4 6 7 2 7 4 10 8 10 11 9 9 9 7
27 27 27 27 27 26 25 9 2 7 1 2 2 3 4 2 3 3 3 4 1 3 5 7 6 4 4 5 6 6 4 4 4 3 3 4 8 8 4 7 13 10 9 10 11
28 27 28 27 27 24 12 4 8 6 3 6 5 5 5 5 1 1 4 5 3 7 4 2 5 5 7 6 2 1 1 2 3 4 2 6 7 11 6 4 7 8 9 10 14
30 29 30 28 25 19 3 8 6 3 11 11 13 7 9 4 4 2 4 5 4 4 4 6 5 8 4 3 4 3 1 6 6 3 3 4 8 9 5 7 9 11 11 16 9
30 30 32 29 24 5 3 8 2 3 3 9 4 3 5 9 7 6 6 4 3 4 4 6 6 4 4 3 3 3 5 5 7 3 2 4 7 6 7 5 5 8 8 14 20
31 30 31 33 6 5 1 3 7 5 6 9 4 3 2 5 3 9 7 6 2 9 8 5 3 4 3 2 6 4 8 5 4 4 4 1 8 6 6 8 6 12 9 11 13
32 30 28 13 3 3 7 11 8 4 4 3 2 2 0 2 2 2 3 4 8 6 6 8 6 4 4 7 7 8 5 7 3 3 1 2 2 8 3 6 11 9 8 8 13
33 32 26 1 1 7 8 9 3 7 8 6 5 8 3 3 3 2 3 6 3 4 3 6 1 5 8 4 6 9 6 7 5 3 2 8 8 6 4 5 6 5 6 9 11
35 33 13 3 6 14 6 5 6 4 6 6 5 7 4 5 4 5 1 3 6 5 5 5 4 4 4 3 3 6 7 3 4 3 7 0 2 10 6 7 6 14 10 5 9
36 25 5 3 8 7 4 7 3 2 3 3 5 6 1 7 5 8 2 1 3 4 3 5 9 7 5 9 10 7 9 8 7 5 5 1 7 8 3 5 7 5 2 5 7
26 6 4 6 11 3 7 4 5 1 5 6 7 4 3 5 5 7 6 2 3 1 6 5 7 5 5 3 9 5 4 5 7 3 2 6 8 8 2 5 4 4 7 8 8
6 5 4 14 8 5 6 5 2 4 5 2 2 1 3 5 6 6 3 4 6 4 3 4 5 6 6 5 4 6 8 4 3 4 5 5 5 8 5 4 3 4 7 7 8
4 6 5 18 4 7 4 3 3 5 8 5 3 4 2 3 1 2 4 4 6 6 5 6 4 7 2 6 10 3 2 5 5 5 7 2 8 8 9 11 11 10 11 11 9
5 5 6 8 6 2 3 6 7 7 8 6 3 4 2 3 3 4 5 4 7 4 4 4 2 4 10 5 2 6 9 7 8 6 3 3 13 6 9 12 11 11 9 7 8
3 4 6 5 5 5 6 5 4 8 7 7 5 5 3 3 4 2 5 5 13 9 5 6 3 5 10 6 4 3 5 6 4 5 9 7 13 4 4 6 9 11 9 9 9
3 6 6 7 4 4 5 5 7 8 4 3 4 5 4 2 1 5 6 6 15 8 14 4 4 8 10 8 5 8 8 5 7 5 15 8 23 5 6 8 8 10 10 9 8
4 2 1 6 4 6 2 4 9 5 4 7 5 3 5 5 5 7 3 11 3 12 6 5 6 4 11 7 7 14 19 17 10 18 11 22 11 20 11 11 12 14 5 8 9
3 3 3 4 4 6 4 3 4 7 3 3 7 6 9 6 7 15 10 5 6 8 3 2 5 3 15 14 15 14 15 20 22 21 15 20 19 8 9 9 6 10 9 10 10
1 1 1 5 3 3 4 4 6 9 8 7 13 11 12 11 12 12 6 11 14 10 9 9 7 3 22 13 11 10 25 17 18 16 20 17 21 7 9 11 12 13 12 15 14
Wind_Direction
355 353 352 351 349 347 345 340 332 323 314 308 305 302 311 318 311 169 233 213 162 157 184 290 113 17 68 68 85 127 67 161 200 168 184 167 137 191 344 89 52 34 108 130 135
356 353 349 347 345 343 342 340 335 325 314 305 302 307 322 331 263 230 244 150 146 173 76 52 54 22 65 93 39 89 111 205 188 185 181 155 146 152 100 96 33 78 60 88 64
353 351 349 344 341 337 337 337 333 326 316 309 307 313 322 309 351 254 145 148 148 128 105 120 97 107 113 129 172 153 180 187 206 204 154 148 143 127 120 313 198 160 151 124 107
350 348 345 342 337 333 330 331 331 325 315 305 301 311 318 222 200 252 142 139 148 147 146 129 85 79 96 127 348 163 218 183 168 164 127 162 138 108 152 214 171 179 142 132 134
347 344 343 338 335 328 325 323 324 321 312 302 296 310 44 12 250 327 130 137 142 152 71 99 67 104 122 130 20 144 276 169 190 149 144 125 178 180 210 197 163 128 129 146 141
343 342 339 336 332 326 323 318 315 310 304 297 295 305 79 296 238 325 142 125 138 123 135 102 138 153 106 78 100 295 307 6 187 177 113 146 220 143 253 131 146 149 169 158 158
340 337 336 333 329 325 322 318 309 303 294 284 290 298 113 233 70 10 167 139 167 186 103 146 140 93 127 80 332 251 103 7 258 193 229 125 289 223 209 161 163 179 184 163 180
339 335 332 329 328 325 324 318 303 289 278 259 273 11 246 256 327 301 148 304 235 225 168 138 99 96 59 82 22 78 53 132 267 152 255 144 235 249 193 161 192 186 186 186 190
337 333 330 327 328 325 325 320 299 248 212 192 240 118 267 317 271 236 149 186 317 83 51 98 70 76 34 93 18 5 193 183 302 200 126 172 269 245 188 174 195 188 188 195 196
336 332 329 328 328 326 323 306 275 113 142 205 286 19 291 266 254 195 184 116 220 78 38 46 51 71 39 79 211 211 196 222 214 202 168 188 264 285 174 176 211 197 187 194 199
337 334 328 330 329 327 342 36 16 349 21 223 201 230 279 267 259 238 149 112 106 61 153 29 75 212 217 193 158 146 172 254 252 256 214 222 246 252 251 202 190 185 193 203 211
339 337 329 332 327 323 316 85 105 238 302 242 250 251 255 27 339 338 123 143 137 172 119 27 234 226 199 188 199 185 292 284 283 264 164 288 260 250 246 223 210 201 205 206 191
340 338 333 334 322 19 2 117 2 136 266 301 221 208 220 157 216 254 144 120 137 147 176 160 228 111 172 174 173 214 183 223 219 1 15 337 280 237 260 258 242 242 210 207 196
340 339 341 330 51 326 316 343 326 189 41 283 331 311 102 121 251 202 184 138 130 196 160 219 271 155 129 223 155 245 209 177 179 104 235 47 280 286 241 249 257 252 207 204 197
339 340 344 6 277 11 300 334 322 65 346 277 15 152 133 203 291 350 160 68 180 185 121 248 174 175 202 214 163 228 143 153 137 130 84 280 315 261 249 255 251 256 260 231 200
338 335 337 289 276 249 312 309 54 47 252 352 23 352 19 275 330 66 123 59 131 127 341 234 221 178 208 234 171 153 80 55 60 101 318 212 179 274 243 215 303 273 255 243 178
335 329 324 323 308 322 319 39 41 160 328 360 347 335 334 321 353 47 142 148 173 118 246 328 235 250 160 166 48 82 73 347 346 6 231 203 124 249 242 281 253 287 282 235 165
332 323 296 237 291 311 33 48 193 308 341 19 327 310 58 12 353 341 77 247 192 119 144 191 294 179 186 190 183 187 153 157 206 198 253 94 237 252 246 307 300 300 168 124 133
332 334 352 320 328 6 64 72 223 278 339 345 332 352 330 11 5 10 2 233 355 132 192 189 259 285 183 179 139 191 166 201 104 21 64 234 291 305 234 359 24 74 112 127 133
332 342 298 326 322 56 81 225 226 14 321 346 189 298 291 1 19 24 309 17 352 58 280 275 297 239 239 101 47 164 159 80 3 169 229 269 268 237 236 211 141 138 156 180 188
23 12 293 337 48 47 157 221 329 39 9 3 355 304 34 8 302 280 265 63 352 327 0 1 135 285 92 201 178 145 187 52 125 142 180 210 257 216 210 187 188 200 199 199 201
351 357 323 350 44 31 38 333 308 352 9 351 3 39 9 3 269 249 239 31 343 324 22 10 285 251 239 274 242 176 194 157 140 223 228 165 261 201 210 192 184 207 215 215 215
9 277 320 35 65 12 332 327 325 18 356 354 344 27 357 278 313 283 319 32 28 18 41 347 323 337 330 349 13 223 197 149 120 76 198 167 263 196 193 185 209 204 212 213 219
22 355 330 30 24 60 19 310 331 342 293 305 308 343 5 266 279 277 347 321 353 337 329 350 232 201 241 262 312 287 307 247 179 164 240 214 254 202 217 215 218 221 220 218 229
24 30 147 339 343 345 259 271 276 291 303 32 322 62 34 295 324 266 307 319 308 283 267 194 237 234 270 278 303 290 286 269 214 233 203 248 218 251 206 208 221 228 210 204 216
61 18 355 264 304 325 321 264 283 298 294 290 307 325 319 258 254 287 284 234 215 284 288 229 259 273 280 291 279 276 282 261 255 249 251 247 256 252 203 216 212 213 201 213 217
164 352 157 263 196 252 224 269 306 335 293 270 319 311 294 267 259 271 249 268 255 263 265 263 272 247 270 268 287 276 245 256 259 245 233 233 246 168 224 216 226 230 207 217 212